Regional Weather Roundup
Issued by NWS

Home | Current Version | Previous Version | Text Only | Print | Product List | Glossary Off
Versions: 1 2 3 4 5 6 7 8 9 10 11 12 13 14 15 16 17 18 19 20 21 22 23 24 25 26 27 28 29 30 31 32 33 34 35 36 37 38 39 40 41 42 43 44 45 46 47 48 49 50

000
ASUS45 KBOU 031010
RWRCO

WEATHER ROUNDUP FOR COLORADO
NATIONAL WEATHER SERVICE PUEBLO CO
400 AM MDT MON AUG 03 2015

NOTE: "FAIR" INDICATES FEW OR NO CLOUDS BELOW 12000 FEET WITH NO
SIGNIFICANT WEATHER AND/OR OBSTRUCTIONS TO VISIBILITY.

COZ001>005-013-030-031-031100-
...NORTHWEST COLORADO...

CITY           SKY/WX    TMP DP  RH WIND       PRES   REMARKS
CRAIG          CLOUDY    60  32  34 CALM      30.16S
HAYDEN         CLOUDY    59  50  72 SE9       30.18R
MEEKER         CLOUDY    59  54  83 CALM      30.15F
MOUNT WERNER   NOT AVBL
STEAMBOAT SPGS FAIR      56  50  79 CALM      30.20F
WALDEN         FAIR      54  43  66 E3        30.29R
$$

COZ006>008-011-031100-
...WEST CENTRAL VALLEYS...

CITY           SKY/WX    TMP DP  RH WIND       PRES   REMARKS
GRAND JUNCTION MOCLDY    62  56  80 E5        30.07S
MONTROSE       MOCLDY    61  58  90 E5        30.16S
EAGLE          CLOUDY    57  55  94 CALM      30.22S
RIFLE          CLOUDY    62  58  86 E3        30.12S
DELTA          NOT AVBL
NUCLA          FAIR      59  54  82 CALM      30.20R
$$

COZ017>023-064>068-031100-
...SOUTHWEST COLORADO...

CITY           SKY/WX    TMP DP  RH WIND       PRES   REMARKS
DURANGO        PTCLDY    55  54  96 CALM      30.24S
CORTEZ         CLEAR     59  55  87 SE5       30.17F
PAGOSA SPRINGS CLOUDY    57  55  94 CALM      30.29R
TELLURIDE      CLOUDY    55  48  77 CALM      30.36S
WOLF CREEK PAS NOT AVBL
$$

COZ009-010-012-014-032>034-037-058>063-031100-
...CENTRAL COLORADO...

CITY           SKY/WX    TMP DP  RH WIND       PRES   REMARKS
ASPEN          CLOUDY    54  52  93 CALM      30.25S
BUENA VISTA    MOCLDY    54  52  94 CALM      30.32S
COPPER MTN     CLOUDY    54  32  43 S8        30.54S
BERTHOUD PASS  CLOUDY    43  32  65 SE25G35   30.61S
COTTONWOOD PAS CLOUDY    54  46  76 W5        30.43R
GUNNISON       CLOUDY    55  52  88 N6        30.32R
KREMMLING      CLOUDY    59  45  58 E6        30.26R
LEADVILLE      CLOUDY    46  46 100 SE6       30.40S
MONARCH PASS   FOG       43  41  93 S3        30.65S VSB 1/4
SALIDA         NOT AVBL
NIWOT RIDGE    NOT AVBL
SUNLIGHT       CLOUDY    46  45  93 SE3       30.46S
WILKERSON PASS CLOUDY    50  32  50 S13G22    30.54S
$$

COZ069>075-031100-
...SAN LUIS VALLEY/SANGRE DE CRISTO MOUNTAINS...

CITY           SKY/WX    TMP DP  RH WIND       PRES   REMARKS
ALAMOSA        CLOUDY    55  54  96 SE5       30.28S
LA VETA PASS   CLOUDY    46  43  87 MISG      30.44S FOG
SAGUACHE       CLOUDY    55  52  88 CALM      30.31S
$$

COZ035-036-038>040-031100-
...NORTHERN COLORADO FRONT RANGE...

CITY           SKY/WX    TMP DP  RH WIND       PRES   REMARKS
DENVER INTL AP CLOUDY    63  50  62 S7        30.08S
DMNS CITY PARK NOT AVBL
AURORA         MOCLDY    64  51  63 S9        30.11S
FRONT RANGE AP NOT AVBL
ERIE MUNI ARPT FAIR      64  53  68 CALM      30.06S
BOULDER MUN AP FAIR      68  46  45 CALM      30.07S
CENTENNIAL     CLOUDY    64  51  62 S8        30.12S
BROOMFIELD     CLOUDY    64  50  59 SW3       30.09F
LOVELAND       MOCLDY    64  52  63 N5        30.07S
LONGMONT       FAIR      67  54  63 CALM      30.08R
$$

COZ041-046-047-076>085-087-088-031100-
...PIKES PEAK/PALMER DIVIDE AND SOUTHERN FOOTHILLS...

CITY           SKY/WX    TMP DP  RH WIND       PRES   REMARKS
COLO. SPRINGS  CLOUDY    69  49  48 SE6       30.17R
A. F. ACADEMY  CLOUDY    60  51  72 N5        30.18S
ELLICOTT       FAIR     N/A N/A N/A MISG      30.15S
FALCON         FAIR      64  49  58 CALM      30.22S
FORT CARSON    CLOUDY    67  51  56 N2        30.13S
LIMON          CLOUDY    58  51  78 CALM      30.12S
MONUMENT HILL  NOT AVBL
TRINIDAD       CLOUDY    63  55  75 SW6       30.13R
$$

COZ042>045-048>051-090-091-031100-
...NORTHEAST COLORADO...

CITY           SKY/WX    TMP DP  RH WIND       PRES   REMARKS
GREELEY ARPT   CLOUDY    63  54  72 CALM      30.05S
AKRON          MOCLDY    67  52  58 S10       30.05S
BURLINGTON     MOCLDY    65  60  84 W8        30.04R
WRAY           FAIR      65  58  77 W8        30.00S
STERLING       FAIR      61  55  82 CALM      30.00F
HOLYOKE        FAIR      63  59  88 SW5       30.00S
FORT MORGAN    FAIR      63  52  68 CALM      30.04S
$$

COZ086-089-092>099-031100-
...SOUTHEAST COLORADO...

CITY           SKY/WX    TMP DP  RH WIND       PRES   REMARKS
PUEBLO         CLOUDY    69  56  62 CALM      30.05S
LA JUNTA       CLOUDY    72  55  55 NE3       30.01F
LAMAR          CLOUDY    68  62  81 CALM      29.97F
SPRINGFIELD      N/A     68  62  81 SW9       30.03S
$$




USA.gov is the U.S. government's official web portal to all federal, state and local government web resources and services.